Preview of NWS' New Version of Forecast
This preview is not operational and should not be used for support decisions.

Regional Weather Roundup (RWR)

Issued by National Weather Service (NWS)

                            
000
ASUS42 KTBW 230315
RWRFL 
FLORIDA REGIONAL WEATHER ROUNDUP
NATIONAL WEATHER SERVICE TAMPA BAY RUSKIN FL
1100 PM EDT SAT JUN 22 2019

NOTE: "FAIR" INDICATES FEW OR NO CLOUDS BELOW 12,000 FEET WITH NO
SIGNIFICANT WEATHER AND/OR OBSTRUCTIONS TO VISIBILITY.

FLZ001>010-012>015-112-114-115-230400-
PANHANDLE FLORIDA
  
CITY           SKY/WX    TMP DP  RH WIND       PRES   REMARKS
PENSACOLA      FAIR      82  79  90 SW3       30.09R                  
PENSACOLA NAS  FAIR      79  78  97 SW3       30.09R FOG              
CRESTVIEW      FAIR      80  75  84 SW3       30.11R                  
DUKE FIELD     FAIR      80  77  89 S3        30.10R                  
VALPARAISO     FAIR      82  77  84 SW3       30.09R                  
MARY ESTHER    CLEAR     83  75  78 CALM      30.08R                  
TRI COUNTY     FAIR      81  77  88 SW3       30.10R                  
PANAMA CITY    FAIR      81  76  84 SW3       30.09R HAZE             
TYNDALL AFB    FAIR      83  77  81 W8        30.10R                  
APALACHICOLA   FAIR      82  76  81 W6        30.10R                  

STATION/POSITION SKY/WX   TEMP    WIND        PRES    WAVE   SWELL
                          AIR SEA DIR/SP/G            HT/PER HT/PER
                          (F)     (DEG/KT/KT) (MB)    (FT/S) (FT/S)
PANAMA CITY BEAC           84 84  250/ 11/ 13 1019.5R
TOWER C          NOT AVBL

$$
FLZ011-016>038-118-127-128-134-139-239-230400-
NORTH FLORIDA
  
CITY           SKY/WX    TMP DP  RH WIND       PRES   REMARKS
MARIANNA       FAIR      83  76  79 W6        30.09R                  
TALLAHASSEE    FAIR      76  71  85 CALM      30.11R                  
PERRY          FAIR      77  74  90 CALM      30.12R                  
LIVE OAK       PTCLDY    81  79  94 CALM      30.10R                  
CROSS CITY     FAIR      81  78  89 W6        30.11R                  
LAKE CITY      FAIR      79  77  94 W7        30.11R                  
GAINESVILLE    FAIR      81  76  84 SW9       30.12R                  
PALATKA        MOCLDY    81  75  83 W7        30.10R                  
MAYPORT NAS    CLOUDY    85  74  69 N6        30.08R THUNDER          
JACKSONVILLE   MOCLDY    84  75  74 W7        30.08R                  
JAX NAS        FAIR      85  73  67 W15       30.09R                  
JAX CECIL      NOT AVBL                                               
FERNANDINA BEA MOCLDY    82  74  77 NW3       30.08R                  
ST AUGUSTINE   FAIR      78  69  73 W9        30.09R                  
PALM COAST     FAIR      73  69  87 W3        30.08S                  

STATION/POSITION SKY/WX   TEMP    WIND        PRES    WAVE   SWELL
                          AIR SEA DIR/SP/G            HT/PER HT/PER
                          (F)     (DEG/KT/KT) (MB)    (FT/S) (FT/S)
SHELL POINT      NOT AVBL
KEATON BEACH               84     260/ 14/ 16 1019.5R
CEDAR KEY                  84     280/  8/ 10 1019.7R
FERNANDINA                 85 85  360/  3/  4 1018.9R
30.7N   81.3W                 83                N/A     1/11
MAYPORT                    85 84  340/  3/  5 1018.5R
ST AUGUSTINE               77 78  250/  7/  9 1018.7R

$$
FLZ040-043>046-052-053-057-058-063-144-230400-
INTERIOR CENTRAL FLORIDA
  
CITY           SKY/WX    TMP DP  RH WIND       PRES   REMARKS
OCALA          FAIR      80  77  90 CALM      30.12R                  
LEESBURG       FAIR      80  75  84 SW3       30.11S                  
SANFORD        FAIR      82  73  74 W9        30.09S                  
ORLANDO EXEC   FAIR      83  74  74 W9        30.10S                  
ORLANDO INTL   FAIR      82  73  74 W5        30.11R                  
KISSIMMEE      FAIR      81  75  82 W7        30.12R                  
WINTER HAVEN   FAIR      81  74  79 W5        30.12S                  
LAKELAND       FAIR      81  73  78 CALM      30.12S                  
BARTOW           N/A     82  75  78 CALM      30.11S                  
SEBRING        FAIR      84  75  74 NW6       30.12R                  
OKEECHOBEE     FAIR      79  75  89 CALM      30.11R                  

$$
FLZ041-047-054-059-064-141-147-230400-
EAST CENTRAL FLORIDA
  
CITY           SKY/WX    TMP DP  RH WIND       PRES   REMARKS
DAYTONA BEACH  MOCLDY    80  69  69 SW5       30.08R                  
DELAND         FAIR      82  72  69 NW3       30.09R                  
JFK SPACE CTR  FAIR      83  64  52 W5        30.08S                  
CAPE CANAVERAL FAIR      77  34  21 SE5       30.08S                  
PATRICK AFB    FAIR      85  76  74 W7        30.09S HX  95           
MELBOURNE      FAIR      83  75  77 W5        30.09S                  
VERO BEACH     FAIR      83  78  85 SE5       30.11R                  
FT PIERCE      FAIR      80  76  87 CALM      30.11R                  
STUART         FAIR      82  77  83 S5        30.12S                  

STATION/POSITION SKY/WX   TEMP    WIND        PRES    WAVE   SWELL
                          AIR SEA DIR/SP/G            HT/PER HT/PER
                          (F)     (DEG/KT/KT) (MB)    (FT/S) (FT/S)
TRIDENT PIER               85 76  270/  6/  9 1020.4R
28.4N   80.5W                 74                N/A     1/ 8
27.5N   80.2W                 81                N/A     1

$$
FLZ050-056-061-142-242-148-248-149-249-151-251-155-255-
160-260-230400-
WEST CENTRAL FLORIDA
  
CITY           SKY/WX    TMP DP  RH WIND       PRES   REMARKS
CRYSTAL RIVER  FAIR     N/A N/A N/A W5        30.12R                  
INVERNESS      FAIR      77  77 100 CALM      30.12R                  
BROOKSVILLE    FAIR      77  74  90 CALM      30.11S                  
CLEARWATER AIR FAIR      82  73  74 CALM      30.11S                  
ST PETE CLEARW FAIR      82  76  81 W3        30.11R                  
TAMPA INTL     MOCLDY    84  76  76 CALM      30.11S                  
PLANT CITY       N/A    N/A N/A N/A MISG        N/A                   
MACDILL AFB    FAIR      83  76  79 CALM      30.11S                  
PETER O KNIGHT MOCLDY    84  77  79 CALM      30.12R                  
ST PETERSBURG  FAIR      85  76  74 N3        30.10R                  
SARASOTA       FAIR      83  73  72 NW3       30.10R                  
VENICE         FAIR      84  77  79 N6        30.12R                  

STATION/POSITION SKY/WX   TEMP    WIND        PRES    WAVE   SWELL
                          AIR SEA DIR/SP/G            HT/PER HT/PER
                          (F)     (DEG/KT/KT) (MB)    (FT/S) (FT/S)
27.3N   84.2W                 85                N/A     1/ 5
CLEARWATER BEACH           85 90  300/  5/  6 1019.9R
MIDDLE TAMPA BAY           85     360/  7/  8 1019.9R
VENICE                     85 86  340/ 11/ 12 1019.8R

$$
FLZ066-069-070-075>078-162-262-165-265-230400-
SOUTHWEST FLORIDA AND KEYS
  
CITY           SKY/WX    TMP DP  RH WIND       PRES   REMARKS
PUNTA GORDA    FAIR      81  75  82 NW6       30.13R                  
FT MYERS       FAIR      84  73  69 NW7       30.10R                  
SOUTHWEST INTL FAIR      84  76  76 N3        30.11R                  
NAPLES         FAIR      85  79  82 CALM      30.10R HX  98           
IMMOKALEE      FAIR      82  77  83 CALM      30.09R                  
MARATHON       FAIR      85  77  77 E6        30.10R HX  95           
KEY WEST NAS   FAIR      85  77  77 E6        30.09S HX  95           
KEY WEST INTL  FAIR      84  77  79 SE7       30.10R                  

STATION/POSITION SKY/WX   TEMP    WIND        PRES    WAVE   SWELL
                          AIR SEA DIR/SP/G            HT/PER HT/PER
                          (F)     (DEG/KT/KT) (MB)    (FT/S) (FT/S)
NAPLES                     88 90              1019.1R
DRY TORTUGAS     NOT AVBL

$$
FLZ067-068-071>074-168-172>174-230400-
SOUTHEAST FLORIDA 
  
CITY           SKY/WX    TMP DP  RH WIND       PRES   REMARKS
W PALM BEACH   MOCLDY    85  74  69 S5        30.12R                  
BOCA RATON     CLEAR     84  77  79 SE5       30.12R                  
FT LAUDER-EXEC FAIR      84  76  76 S3        30.11R                  
FT LAUDERDALE  MOCLDY    85  76  74 S3        30.10R                  
POMPANO BEACH  FAIR      85  77  77 SE3       30.11R HX  95           
PEMBROKE PINES FAIR      86  76  71 S7        30.12R HX  96           
OPA LOCKA      FAIR      85  76  74 S6        30.12R                  
MIAMI          CLOUDY    85  75  72 S6        30.11R                  
WEST KENDALL   FAIR      84  77  79 CALM      30.11R                  
HOMESTEAD      FAIR      81  78  90 CALM      30.10R                  

STATION/POSITION SKY/WX   TEMP    WIND        PRES    WAVE   SWELL
                          AIR SEA DIR/SP/G            HT/PER HT/PER
                          (F)     (DEG/KT/KT) (MB)    (FT/S) (FT/S)
VIRGINIA KEY               85 89  130/  5/  6 1019.1
LAKE WORTH                 84 84  180/  8/  9 1020.8R
FOWEY ROCKS                84 85  150/ 10/ 11 1019.8R
SETTLEMENT POINT           85     200/  4/  5 1020.2R

$$